Regional Weather Roundup
Issued by NWS Jackson, KY

Home | Current Version | Previous Version | Graphics & Text | Print | Product List | Glossary On
Versions: 1 2 3 4 5 6 7 8 9 10 11 12 13 14 15 16 17 18 19 20 21 22 23 24 25 26 27 28 29 30 31 32 33 34 35 36 37 38 39 40 41 42 43 44 45 46 47 48 49 50
000
ASUS43 KJKL 170311
RWRJKL

EAST KENTUCKY HOURLY WEATHER ROUNDUP
NATIONAL WEATHER SERVICE JACKSON KY
1100 PM EDT TUE SEP 16 2014

NOTE: "FAIR" INDICATES FEW OR NO CLOUDS BELOW 12,000 FEET WITH
NO SIGNIFICANT WEATHER AND/OR OBSTRUCTIONS TO VISIBILITY.

* THESE REPORTS ARE NOT UNDER NWS QUALITY CONTROL AND MAY NOT
  REPORT WEATHER SUCH AS PRECIPITATION AND FOG.

KYZ079-080-083-085-087-088-110-112-115-119-120-170400
...EASTERN KENTUCKY...

CITY           SKY/WX    TMP DP  RH WIND       PRES   REMARKS
JACKSON        MOCLDY    56  54  93 CALM      30.09S FOG
LONDON         CLEAR     58  55  90 N7        30.08S
MONTICELLO*    CLEAR     58  57  96 CALM      30.10R
WILLIAMSBURG*    N/A    N/A N/A N/A CALM        N/A
MIDDLESBORO*   CLOUDY    64  59  86 CALM      30.07S
HARLAN APT*    CLOUDY    61  55  82 MISG      30.08S
HAZARD APT*    CLOUDY    59  59 100 CALM      30.10  FOG
BLACK MTN*       N/A     52  52 100 NE3         N/A
PIKEVILLE APT* CLOUDY    57  55  94 NE5       30.09S
BIG SANDY*     CLOUDY    56  56  99 CALM      30.09S FOG
MOREHEAD APT*  MOCLDY    55  52  88 CALM      30.11F
$$

KYZ035-036-041-042-044-050-067-078-099-170400
...CENTRAL KENTUCKY...

CITY           SKY/WX    TMP DP  RH WIND       PRES   REMARKS
MT STERLING*   CLEAR     54  52  94 N3        30.12R
FLEMING/MASON* CLEAR     52  50  93 CALM      30.11S
DANVILLE*      PTCLDY    54  52  94 CALM      30.11S
RICHMOND*      PTCLDY    55  52  88 CALM      30.09S
LEXINGTON      CLEAR     55  51  86 NE6       30.10S
FRANKFORT      CLEAR     52  51  97 CALM      30.10S
$$

KYZ091>093-OHZ055-061-077-WVZ005-015-034-035-042-170400
...SOUTHERN OHIO/WEST VIRGINIA...

CITY           SKY/WX    TMP DP  RH WIND       PRES   REMARKS
COVINGTON      CLOUDY    58  51  78 N3        30.11S
COLUMBUS       CLEAR     55  48  77 N3        30.09S
DAYTON         PTCLDY    54  48  80 CALM      30.12S
WILMINGTON     PTCLDY    55  47  74 N3        30.11S
HUNTINGTON     CLOUDY    58  53  84 N7        30.08S
CHARLESTON     PTCLDY    57  57 100 CALM      30.08S FOG
PINEVILLE*     CLOUDY    61  60  99 MISG      30.14S
BECKLEY        CLOUDY    56  53  90 CALM      30.11S
BLUEFIELD      CLOUDY    60  55  83 CALM      30.11S
$$

VAZ002-007-008-TNZ017-027-036-066-071-170400
...SOUTHWEST VIRGINIA/EAST TENNESSEE...

CITY           SKY/WX    TMP DP  RH WIND       PRES   REMARKS
WISE*          CLOUDY    59  59 100 N7        30.11S
JONESVILLE*    PTCLDY    61  57  88 CALM      30.08S
ABINGDON*      MOCLDY    61  60  94 CALM      30.07S
BRISTOL        PTCLDY    64  58  80 CALM      30.05S
KNOXVILLE      MOCLDY    68  61  78 CALM      30.03S
OAK RIDGE      CLEAR     64  61  90 CALM      30.06S
CROSSVILLE     CLEAR     61  58  90 CALM      30.08F FOG
NASHVILLE      PTCLDY    61  57  87 NW3       30.07S
$$

...KEY TO REMARKS...
VSB - VISIBILITY IN MILES
WCI - WIND CHILL INDEX
HX  - HEAT INDEX

$$


USA.gov is the U.S. government's official web portal to all federal, state and local government web resources and services.